Date String (YYYY-MM-DD hh:mm:ss) UTC,Instrument flags,absolute air pressure of the measurement (hPa),sample flow rate (lpm),inlet stack bypass flow (lpm),air temperature of the measurement (°C),ambient temperature measured by the external sensor (°C),aerosol sample conditioner tube jacket temperature (°C),OPC LED temperature (°C),internal box temperature (°C),relative humidity of the measurement (%),span deviation,mass concentration of particles derived from Lorenz-Mie calculation of OPC scattering (μg/m³),mass concentration of particles derived from Lorenz-Mie calculation of OPC scattering (μg/m³),mass concentration of particles derived from Lorenz-Mie calculation of OPC scattering (μg/m³)
DateTimeUTC,F1_M11,P_M11,Q1_M11,Q2_M11,T1_M11,T2_M11,T3_M11,T4_M11,T5_M11,U1_M11,ZSPAN_M11,X0_M11,X2_M11,X1_M11
2023-08-21 02:00:00,SystemResetWarning,0833.7,4.98,000.00,030.8,025.8,000.0,038.0,030.4,33.1,0002.2,0022.72,0011.00,0009.71
2023-08-21 02:01:00,SystemResetWarning,0833.7,5.00,000.00,030.8,024.5,000.0,037.9,030.2,32.7,0002.2,0022.58,0011.02,0009.72
2023-08-21 02:02:00,SystemResetWarning,0833.7,5.00,000.00,030.8,024.1,000.0,037.9,030.0,32.4,0002.0,0022.03,0011.04,0009.72
2023-08-21 02:03:00,SystemResetWarning,0833.6,5.01,000.00,030.6,024.2,000.0,038.0,029.8,32.6,0001.6,0022.07,0011.08,0009.73
2023-08-21 02:04:00,SystemResetWarning,0833.6,5.01,000.00,030.5,024.6,000.0,038.0,029.8,33.0,0001.5,0022.23,0011.20,0009.79
2023-08-21 02:05:00,SystemResetWarning,0833.6,4.99,000.00,030.4,025.1,000.0,038.1,030.0,33.4,0001.8,0022.60,0011.32,0009.86
2023-08-21 02:06:00,SystemResetWarning,0833.7,5.00,000.00,030.4,025.6,000.0,038.1,030.1,33.8,0002.1,0022.79,0011.36,0009.92
2023-08-21 02:07:00,SystemResetWarning,0833.7,4.99,000.00,030.3,026.0,000.0,038.1,030.3,34.4,0002.0,0022.91,0011.42,0009.98
2023-08-21 02:08:00,SystemResetWarning,0833.7,5.00,000.00,030.4,026.4,000.0,038.2,030.4,34.6,0001.6,0023.39,0011.44,0010.02
2023-08-21 02:09:00,SystemResetWarning,0833.8,5.00,000.00,030.4,025.9,000.0,038.1,030.4,34.5,0001.8,0023.13,0011.47,0010.05
2023-08-21 02:10:00,SystemResetWarning,0833.8,4.98,000.00,030.4,024.5,000.0,038.0,030.1,34.3,0001.8,0022.70,0011.58,0010.10
2023-08-21 02:11:00,SystemResetWarning,0833.8,5.00,000.00,030.3,024.0,000.0,037.9,029.9,33.9,0001.3,0021.55,0011.58,0010.13
2023-08-21 02:12:00,SystemResetWarning,0833.8,5.01,000.00,030.2,024.1,000.0,037.9,029.7,34.0,0001.3,0021.75,0011.65,0010.16
2023-08-21 02:13:00,SystemResetWarning,0833.7,5.01,000.00,030.0,024.5,000.0,037.9,029.7,34.5,0001.1,0021.95,0011.69,0010.20
2023-08-21 02:14:00,SystemResetWarning,0833.7,4.99,000.00,029.9,025.0,000.0,037.9,029.9,34.6,0001.4,0023.08,0011.71,0010.21
2023-08-21 02:15:00,SystemResetWarning,0833.7,5.00,000.00,029.9,025.5,000.0,037.9,030.0,34.5,0001.5,0023.83,0011.69,0010.21
2023-08-21 02:16:00,SystemResetWarning,0833.7,5.01,000.00,029.9,025.9,000.0,037.9,030.1,34.2,0001.5,0023.20,0011.67,0010.22
2023-08-21 02:17:00,SystemResetWarning,0833.7,5.01,000.00,029.9,026.2,000.0,037.9,030.2,34.5,0001.2,0022.00,0011.74,0010.22
2023-08-21 02:18:00,SystemResetWarning,0833.7,4.98,000.00,029.9,025.9,000.0,037.9,030.2,34.4,0001.2,0022.01,0011.77,0010.22
2023-08-21 02:19:00,SystemResetWarning,0833.6,4.99,000.00,029.8,024.5,000.0,037.7,030.0,34.5,0001.0,0021.89,0011.80,0010.22
2023-08-21 02:20:00,SystemResetWarning,0833.7,5.01,000.00,029.7,023.9,000.0,037.6,029.8,34.2,0000.7,0022.18,0011.77,0010.21
2023-08-21 02:21:00,SystemResetWarning,0833.7,5.01,000.00,029.6,024.0,000.0,037.6,029.6,33.9,0000.5,0023.47,0011.80,0010.22
2023-08-21 02:22:00,SystemResetWarning,0833.7,4.99,000.00,029.4,024.4,000.0,037.6,029.6,34.4,0000.7,0023.52,0011.75,0010.22
2023-08-21 02:23:00,SystemResetWarning,0833.7,4.98,000.00,029.4,024.9,000.0,037.6,029.7,34.9,0000.9,0023.82,0011.75,0010.26
2023-08-21 02:24:00,SystemResetWarning,0833.7,5.03,000.00,029.4,025.3,000.0,037.6,029.9,34.6,0001.6,0023.76,0011.74,0010.27
2023-08-21 02:25:00,SystemResetWarning,0833.7,4.97,000.00,029.4,025.7,000.0,037.6,030.0,34.4,0001.3,0023.04,0011.77,0010.29
2023-08-21 02:26:00,SystemResetWarning,0833.7,5.01,000.00,029.5,026.1,000.0,037.6,030.1,33.9,0001.0,0022.88,0011.80,0010.31
2023-08-21 02:27:00,SystemResetWarning,0833.8,5.01,000.00,029.5,026.3,000.0,037.6,030.2,34.2,0001.1,0022.85,0011.80,0010.31
2023-08-21 02:28:00,SystemResetWarning,0833.8,4.98,000.00,029.5,025.4,000.0,037.5,030.0,33.9,0001.1,0022.79,0011.74,0010.31
2023-08-21 02:29:00,SystemResetWarning,0833.8,5.00,000.00,029.4,024.1,000.0,037.4,029.8,33.5,0000.7,0021.79,0011.68,0010.31
2023-08-21 02:30:00,SystemResetWarning,0833.7,5.01,000.00,029.3,023.9,000.0,037.3,029.6,33.3,0001.3,0021.39,0011.62,0010.32
2023-08-21 02:31:00,SystemResetWarning,0833.7,5.00,000.00,029.2,024.1,000.0,037.3,029.4,33.9,0001.4,0022.22,0011.59,0010.32
2023-08-21 02:32:00,SystemResetWarning,0833.8,4.99,000.00,029.1,024.5,000.0,037.3,029.5,33.8,0001.6,0021.15,0011.56,0010.30
2023-08-21 02:33:00,SystemResetWarning,0833.8,5.00,000.00,029.1,025.0,000.0,037.3,029.7,34.0,0001.2,0020.84,0011.54,0010.26
2023-08-21 02:34:00,SystemResetWarning,0833.8,5.00,000.00,029.0,025.4,000.0,037.3,029.8,33.5,0001.3,0020.40,0011.50,0010.22
2023-08-21 02:35:00,SystemResetWarning,0833.8,5.01,000.00,029.1,025.8,000.0,037.3,029.9,33.4,0001.3,0020.26,0011.45,0010.21
2023-08-21 02:36:00,SystemResetWarning,0833.8,5.00,000.00,029.1,026.2,000.0,037.3,030.0,33.0,0001.4,0020.52,0011.41,0010.20
2023-08-21 02:37:00,SystemResetWarning,0833.8,5.00,000.00,029.1,026.4,000.0,037.3,030.1,33.0,0001.8,0019.69,0011.38,0010.20
2023-08-21 02:38:00,SystemResetWarning,0833.8,4.98,000.00,029.1,025.6,000.0,037.2,029.9,33.7,0001.9,0020.20,0011.40,0010.20
2023-08-21 02:39:00,SystemResetWarning,0833.8,5.01,000.00,029.0,024.2,000.0,037.1,029.7,33.9,0001.9,0020.96,0011.43,0010.20
2023-08-21 02:40:00,SystemResetWarning,0833.8,5.01,000.00,028.9,023.8,000.0,037.0,029.5,33.1,0002.4,0021.92,0011.42,0010.20
2023-08-21 02:41:00,SystemResetWarning,0833.8,4.99,000.00,028.8,024.0,000.0,037.0,029.3,33.2,0002.4,0022.77,0011.45,0010.19
2023-08-21 02:42:00,SystemResetWarning,0833.8,5.00,000.00,028.7,024.4,000.0,037.0,029.4,33.4,0002.2,0021.85,0011.53,0010.19
2023-08-21 02:43:00,SystemResetWarning,0833.8,5.00,000.00,028.7,024.9,000.0,037.0,029.5,33.8,0002.2,0021.55,0011.58,0010.19
2023-08-21 02:44:00,SystemResetWarning,0833.9,5.01,000.00,028.6,025.3,000.0,037.0,029.7,33.6,0002.1,0022.60,0011.68,0010.22
2023-08-21 02:45:00,SystemResetWarning,0834.0,5.00,000.00,028.7,025.7,000.0,037.0,029.8,33.4,0002.1,0023.19,0011.71,0010.23
2023-08-21 02:46:00,SystemResetWarning,0833.9,5.00,000.00,028.7,026.1,000.0,037.0,029.9,34.0,0002.0,0023.61,0011.73,0010.24
2023-08-21 02:47:00,SystemResetWarning,0833.9,5.00,000.00,028.7,026.4,000.0,037.0,029.9,33.8,0002.0,0024.25,0011.84,0010.26
2023-08-21 02:48:00,SystemResetWarning,0834.0,4.98,000.00,028.7,025.8,000.0,036.9,029.9,33.6,0001.7,0024.19,0011.83,0010.26
2023-08-21 02:49:00,SystemResetWarning,0834.0,5.01,000.00,028.6,024.3,000.0,036.8,029.6,33.8,0001.5,0023.74,0011.81,0010.26
2023-08-21 02:50:00,SystemResetWarning,0833.9,5.01,000.00,028.6,023.8,000.0,036.7,029.3,33.1,0001.6,0022.64,0011.72,0010.24
2023-08-21 02:51:00,SystemResetWarning,0833.8,5.01,000.00,028.4,023.9,000.0,036.7,029.1,32.9,0001.6,0022.42,0011.75,0010.24
2023-08-21 02:52:00,SystemResetWarning,0833.9,5.00,000.00,028.3,024.3,000.0,036.7,029.2,33.2,0001.5,0021.16,0011.78,0010.24
2023-08-21 02:53:00,SystemResetWarning,0833.9,5.00,000.00,028.3,024.8,000.0,036.7,029.4,33.2,0001.4,0021.14,0011.76,0010.25
2023-08-21 02:54:00,SystemResetWarning,0833.9,5.00,000.00,028.3,025.3,000.0,036.7,029.5,33.2,0001.3,0021.10,0011.76,0010.25
2023-08-21 02:55:00,SystemResetWarning,0834.0,4.99,000.00,028.3,025.7,000.0,036.7,029.6,33.2,0001.8,0020.59,0011.68,0010.23
2023-08-21 02:56:00,SystemResetWarning,0834.0,5.00,000.00,028.4,026.0,000.0,036.7,029.7,34.1,0002.0,0020.94,0011.66,0010.21
2023-08-21 02:57:00,SystemResetWarning,0834.0,5.00,000.00,028.4,026.3,000.0,036.7,029.8,33.7,0001.7,0020.96,0011.63,0010.19
2023-08-21 02:58:00,SystemResetWarning,0834.0,4.99,000.00,028.4,026.5,000.0,036.7,029.9,33.5,0001.8,0020.58,0011.50,0010.13
2023-08-21 02:59:00,SystemResetWarning,0834.0,4.99,000.00,028.4,025.4,000.0,036.6,029.7,33.3,0001.1,0020.66,0011.49,0010.09
